This is the latest recevied weather packets stored in our database for station/object WA5TET. If no packets are shown the sender has not sent any weather packets the latest 10 day(s).
| Time | Temp. | Humidity | Pressure | Rain* | Wind** | Luminosity | Snow |
|---|---|---|---|---|---|---|---|
| 1787853204 | 36.11° C | 40% | 1014.5 hPa | 0 mm | - | 975 W/m² | - |
| 1787852903 | 36.11° C | 43% | 1014.6 hPa | 0 mm | - | 989 W/m² | - |
| 1787852598 | 36.11° C | 42% | 1014.9 hPa | 0 mm | - | 1004 W/m² | - |
| 1787852297 | 35.56° C | 44% | 1014.8 hPa | 0 mm | - | 568 W/m² | - |
| 1787851996 | 35.56° C | 43% | 1014.8 hPa | 0 mm | - | 973 W/m² | - |
| 1787851696 | 35.56° C | 43% | 1014.9 hPa | 0 mm | - | 978 W/m² | - |
| 1787851390 | 35.56° C | 44% | 1014.9 hPa | 0 mm | - | 954 W/m² | - |
| 1787851086 | 35.56° C | 45% | 1014.9 hPa | 0 mm | - | 943 W/m² | - |
| 1787850781 | 35° C | 45% | 1015 hPa | 0 mm | - | 931 W/m² | - |
| 1787850476 | 35° C | 46% | 1015 hPa | 0 mm | - | 918 W/m² | - |
| 1787850172 | 35.56° C | 45% | 1015 hPa | 0 mm | - | 906 W/m² | - |
| 1787849872 | 35° C | 45% | 1015.1 hPa | 0 mm | - | 894 W/m² | - |
| 1787849567 | 35° C | 47% | 1015 hPa | 0 mm | - | 880 W/m² | - |
| 1787849266 | 35° C | 47% | 1014.9 hPa | 0 mm | - | 872 W/m² | - |
| 1787848966 | 35° C | 46% | 1015.1 hPa | 0 mm | - | 859 W/m² | - |
| 1787848666 | 35° C | 48% | 1015.2 hPa | 0 mm | - | 847 W/m² | - |
| 1787848361 | 33.89° C | 49% | 1015.3 hPa | 0 mm | - | 837 W/m² | - |
| 1787848055 | 33.89° C | 50% | 1015.1 hPa | 0 mm | - | 820 W/m² | - |
| 1787847756 | 33.89° C | 52% | 1015.1 hPa | 0 mm | - | 805 W/m² | - |
| 1787847456 | 33.89° C | 52% | 1015.1 hPa | 0 mm | - | 794 W/m² | - |
| 1787847151 | 33.89° C | 52% | 1015.1 hPa | 0 mm | - | 781 W/m² | - |
| 1787846848 | 33.33° C | 52% | 1015.3 hPa | 0 mm | - | 763 W/m² | - |
| 1787846542 | 32.78° C | 54% | 1015.1 hPa | 0 mm | - | 748 W/m² | - |
| 1787846238 | 32.78° C | 53% | 1015 hPa | 0 mm | - | 738 W/m² | - |
| 1787845934 | 32.78° C | 55% | 1015.1 hPa | 0 mm | - | 715 W/m² | - |
* Rain latest hour (hover to see other rain measurements)
** Current wind speed in m/s (hover to see current wind gust speed)